Location: Seattle
(47.6064°N, 122.3308°W)
Time: 02:48:54
(UTC-08:00)

A-11 Canister half - Pass Details

Date: 28 November 2020
Orbit: 1524 x 1684 km, 47.3° (Epoch: 21 January)

Event Time Altitude Azimuth Distance (km) Brightness Sun altitude
Rises 07:02:29 0° 242° (WSW) 4,932 11.3 -5.4°
Reaches altitude 10° 07:05:40 10° 240° (WSW) 3,940 10.8 -4.9°
Maximum altitude 07:15:45 73° 159° (SSE) 1,722 9.5 -3.4°
Drops below altitude 10° 07:25:35 10° 77° (ENE) 3,856 11.9 -2.0°
Sets 07:28:40 0° 76° (ENE) 4,822 12.4 -1.6°
